Weather History for St. Cloud, MN

Change the Weather History Date:

Monday, October 8, 2012

  Actual Average Record
Temperature  
Mean Temperature 45 °F 49 °F  
Max Temperature 61 °F 61 °F 84 °F (2010)
Min Temperature 28 °F 38 °F 17 °F (2000)
Degree Days  
Heating Degree Days 20 16  
Month to date heating degree days 145 118  
Since 1 July heating degree days 380 404  
Cooling Degree Days 0 0  
Month to date cooling degree days 0 0  
Year to date cooling degree days 739 463  
Moisture  
Dew Point 29 °F    
Average Humidity 59    
Maximum Humidity 79    
Minimum Humidity 38    
Precipitation  
Precipitation T in 0.09 in 0.81 in (1970)
Month to date precipitation T 0.77  
Year to date precipitation 21.73 23.81  
Snow  
Snow 0.00 in 0.00 in 0.00 in ()
Month to date snowfall 0.0 0.0  
Since 1 July snowfall 0.0 T  
Since 1 September snowfall 0.0 T  
Snow Depth 0.00 in    
Sea Level Pressure  
Sea Level Pressure 29.72 in    
Wind  
Wind Speed 9 mph (SSW)    
Max Wind Speed 24 mph    
Max Gust Speed 32 mph    
Visibility 10 miles    
Events      
T = Trace of Precipitation, MM = Missing Value Source: NWS Daily Summary

Daily Weather History Graph

Daily Weather History Graph

Search for Another Location

Airport:

Trip Planner

Search our weather history database for the weather conditions in past years. The results will help you decide how hot, cold, wet, or windy it might be!

Date:

Astronomy

Oct. 08, 2012 Rise Set
Actual Time 7:24 AM CDT 6:42 PM CDT
Civil Twilight 6:54 AM CDT 7:11 PM CDT
Nautical Twilight 6:20 AM CDT 7:46 PM CDT
Astronomical Twilight 5:45 AM CDT 8:20 PM CDT
Moon No Moon Rise 2:50 PM CDT (10/8)
Length of Visible Light 12h 17m
Length of Day
11h 18m
Last Quarter, 46% of the Moon is Illuminated
Oct 8
Last Quarter
Oct 15
New
Oct 21
First Quarter
Oct 29
Full
Nov 6
Last Quarter

Hourly Weather History & Observations

Time (CDT) Temp. Windchill Dew Point Humidity Pressure Visibility Wind Dir Wind Speed Gust Speed Precip Events Conditions
12:53 AM 35.1 °F 31.0 °F 19.9 °F 54% 29.86 in 10.0 mi SE 4.6 mph - N/A   Clear
1:53 AM 35.1 °F 30.1 °F 19.9 °F 54% 29.85 in 10.0 mi SE 5.8 mph - N/A   Clear
2:53 AM 30.9 °F 26.2 °F 21.0 °F 67% 29.84 in 10.0 mi South 4.6 mph - N/A   Clear
3:53 AM 34.0 °F 31.0 °F 21.0 °F 59% 29.82 in 10.0 mi SSE 3.5 mph - N/A   Clear
4:53 AM 34.0 °F 28.8 °F 21.9 °F 61% 29.81 in 10.0 mi SSE 5.8 mph - N/A   Mostly Cloudy
5:53 AM 35.1 °F 29.3 °F 23.0 °F 61% 29.79 in 10.0 mi SE 6.9 mph - N/A   Partly Cloudy
6:53 AM 36.0 °F 31.1 °F 24.1 °F 62% 29.77 in 10.0 mi SSE 5.8 mph - N/A   Overcast
7:53 AM 39.0 °F 34.0 °F 24.1 °F 55% 29.77 in 10.0 mi South 6.9 mph - N/A   Overcast
8:53 AM 41.0 °F 36.4 °F 25.0 °F 53% 29.77 in 10.0 mi South 6.9 mph - N/A   Overcast
9:53 AM 45.0 °F 40.1 °F 26.1 °F 48% 29.73 in 10.0 mi South 9.2 mph - N/A   Overcast
10:53 AM 46.9 °F - 27.0 °F 46% 29.71 in 10.0 mi South 15.0 mph - N/A   Overcast
11:53 AM 52.0 °F - 28.0 °F 40% 29.67 in 10.0 mi South 12.7 mph - N/A   Mostly Cloudy
12:53 PM 53.1 °F - 28.9 °F 40% 29.64 in 10.0 mi South 12.7 mph - N/A   Overcast
1:53 PM 55.0 °F - 30.0 °F 38% 29.60 in 10.0 mi South 12.7 mph - N/A   Overcast
2:53 PM 57.0 °F - 33.1 °F 40% 29.61 in 10.0 mi SSW 13.8 mph - 0.00 in   Overcast
3:53 PM 57.9 °F - 35.1 °F 42% 29.61 in 10.0 mi SW 6.9 mph - 0.00 in   Overcast
4:24 PM 60.8 °F - 33.8 °F 36% 29.57 in 10.0 mi WSW 17.3 mph 25.3 mph N/A   Partly Cloudy
4:53 PM 60.1 °F - 36.0 °F 41% 29.61 in 10.0 mi WSW 18.4 mph 25.3 mph N/A   Scattered Clouds
5:53 PM 60.1 °F - 39.0 °F 46% 29.64 in 10.0 mi West 16.1 mph 21.9 mph N/A   Overcast
6:53 PM 55.9 °F - 39.0 °F 53% 29.68 in 10.0 mi NW 19.6 mph 28.8 mph N/A   Overcast
7:53 PM 50.0 °F - 37.0 °F 61% 29.74 in 10.0 mi WNW 13.8 mph 23.0 mph N/A   Clear
8:53 PM 48.2 °F - 35.6 °F 62% 29.69 in 10.0 mi WNW 9.2 mph - N/A   Clear
9:53 PM 43.0 °F 40.3 °F 35.1 °F 74% 29.75 in 10.0 mi SW 4.6 mph - N/A   Clear
10:53 PM 41.0 °F 38.0 °F 35.1 °F 79% 29.75 in 10.0 mi SW 4.6 mph - N/A   Clear
11:53 PM 42.1 °F 39.2 °F 35.1 °F 76% 29.76 in 10.0 mi SW 4.6 mph - N/A   Clear